Flag for Germany Weather past 2 weeks in Bocholt, North Rhine-Westphalia, Germany

Now
58 °F

Overcast.


Feels Like: 58 °F
Forecast: 53 / 65 °F
Wind: 5 mph from Southwest

Location: Twenthe

Current Time: Aug 30, 2014 at 4:56:38 AM

Latest Report: Aug 30, 2014 at 4:00 AM


Visibility: 13 mi

Pressure: 29.96 "Hg

Humidity: 88%

Dew point: 55 °F

Location of BocholtLocation

Historic Weather in Bocholt — Graph

°F

Bocholt temperature yesterday

Maximum temperature yesterday: 70 °F (at 3:00 PM)
Minimum temperature yesterday: 58 °F (at 7:00 AM)
Average temperature yesterday: 63 °F

Past Weeks' High & Low Weather Summary

 TemperatureHumidityPressure
High72 °F (Aug 28, 3:00 PM)100% (Aug 16, 6:00 AM)30.08 "Hg (Aug 16, 6:00 AM)
Low42 °F (Aug 27, 6:00 AM)46% (Aug 27, 5:00 PM)29.60 "Hg (Aug 18, 8:00 AM)
Average56 °F85%29.90 "Hg
* Reported Aug 15 3:00 AM — Aug 30 3:00 AM, Bocholt, Weather by CustomWeather, © 2014

Note: Actual official high and low records may vary slightly from our data, if they occured in-between our weather recording intervals... More about our weather records

Advertising

Bocholt weather history for previous 24 hours

 ConditionsComfort  
Time TempWeatherWind HumidityBarometerVisibility
3:00 AM
Aug 30
59 °FPassing clouds.5 mph89%29.97 "Hg11 mi
2:00 AM59 °FOvercast.5 mph85%29.98 "Hg14 mi
1:00 AM60 °FPassing clouds.5 mph91%29.98 "Hg11 mi
12:00 AM61 °FOvercast.3 mph91%29.98 "Hg10 mi
11:00 PM
Aug 29
62 °FLight freezing rain. Overcast.2 mph86%29.98 "Hg8 mi
9:00 PM62 °FOvercast.3 mph79%29.97 "Hg11 mi
8:00 PM63 °FPartly sunny.3 mph77%29.97 "Hg16 mi
7:00 PM66 °FOvercast.5 mph69%29.96 "Hg16 mi
6:00 PM67 °FOvercast.5 mph64%29.96 "Hg18 mi
5:00 PM69 °FOvercast.6 mph60%29.96 "Hg17 mi
4:00 PM69 °FScattered clouds.5 mph62%29.97 "Hg16 mi
3:00 PM70 °FPassing clouds.7 mph57%29.97 "Hg16 mi
2:00 PM69 °FPartly sunny.7 mph58%29.97 "Hg16 mi
1:00 PM68 °FPassing clouds.8 mph61%29.97 "Hg15 mi
12:00 PM66 °FPassing clouds.6 mph71%29.97 "Hg12 mi
11:00 AM64 °FPartly sunny.6 mph80%29.97 "Hg9 mi
10:00 AM61 °FPartly sunny.6 mph89%29.96 "Hg6 mi
9:00 AM59 °FFog.5 mph94%29.96 "Hg6 mi
8:00 AM59 °FFog.5 mph95%29.95 "Hg4 mi
7:00 AM58 °FFog.5 mph97%29.94 "Hg2 mi
6:00 AM59 °FFog.5 mph97%29.94 "Hg2 mi
5:00 AM59 °FFog.5 mph98%29.94 "Hg2 mi
4:00 AM59 °FOvercast.3 mph97%29.94 "Hg6 mi
Weather by CustomWeather, © 2014

See weather overviewHow to use our weather pages